EW6230 Weather Reports


time (UTC)temp
F
wind
direction
speed
knots
gust
knots
rain 1hr
in
rain 24hr
in
rain mn
in
humidity
%
barometer
mb
20260510031533 59 175 0.0 0.0 0.00 0.00 0.00 62 1013.0
20260510030028 60 175 0.0 0.0 0.00 0.00 0.00 62 1013.0
20260510024523 60 175 0.0 0.0 0.00 0.00 0.00 61 1013.1
20260510023019 61 175 0.0 0.0 0.00 0.00 0.00 61 1013.2
20260510021514 61 175 0.0 0.0 0.00 0.00 0.00 61 1013.2
20260510020010 62 175 0.0 0.0 0.00 0.00 0.00 59 1013.4
20260510014509 63 175 0.0 0.0 0.00 0.00 0.00 60 1013.5
20260510013001 63 86 0.0 0.9 0.00 0.00 0.00 60 1013.6
20260510011557 63 86 0.0 0.9 0.00 0.00 0.00 59 1013.6
20260510010052 62 86 0.0 0.9 0.00 0.00 0.00 59 1013.8
20260510004550 62 89 0.0 0.0 0.00 0.00 0.00 59 1014.2
20260510003043 63 105 0.0 0.0 0.00 0.00 0.00 58 1014.4
20260510001538 63 105 0.0 0.0 0.00 0.00 0.00 59 1014.6
20260510000034 63 74 0.0 0.9 0.00 0.00 0.00 58 1014.8
20260509234538 63 74 0.0 0.9 0.00 0.00 0.00 59 1015.1
20260509233025 64 60 0.0 0.9 0.00 0.00 0.00 58 1015.2
20260509231520 65 60 0.0 0.9 0.00 0.00 0.00 59 1015.3
20260509230017 64 55 0.0 0.9 0.00 0.00 0.00 60 1015.6
20260509224513 63 73 0.0 0.9 0.00 0.00 0.00 61 1016.0
20260509223008 64 77 0.0 0.9 0.00 0.00 0.00 61 1016.0
20260509221504 64 81 0.0 0.0 0.00 0.00 0.00 60 1016.2
20260509220106 64 84 0.0 0.9 0.00 0.00 0.00 61 1016.5
20260509214559 63 84 0.0 0.9 0.00 0.00 0.00 61 1016.6
20260509213106 64 85 0.0 0.9 0.00 0.00 0.00 60 1016.9
20260509211545 64 91 0.0 0.9 0.00 0.00 0.00 61 1017.1
20260509210053 64 224 0.0 1.7 0.00 0.00 0.00 61 1017.0
20260509204540 63 50 0.0 2.6 0.00 0.00 0.00 61 1017.1
20260509203038 60 2 0.0 0.9 0.00 0.00 0.00 62 1017.4
20260509201527 61 13 0.0 0.0 0.00 0.00 0.00 62 1017.6
20260509200022 61 224 0.0 2.6 0.00 0.00 0.00 62 1017.5
20260509194518 61 269 0.0 0.9 0.00 0.00 0.00 61 1017.6
20260509193014 60 270 0.0 0.9 0.00 0.00 0.00 61 1017.5
20260509191514 61 269 0.0 0.9 0.00 0.00 0.00 62 1017.8
20260509184559 61 307 0.0 0.9 0.00 0.00 0.00 62 1018.2
20260509183055 60 290 0.0 0.9 0.00 0.00 0.00 61 1018.1
20260509181558 59 68 0.0 0.9 0.00 0.00 0.00 60 1018.1
20260509180048 59 61 0.0 0.9 0.00 0.00 0.00 59 1018.1
20260509174542 59 81 0.0 0.9 0.00 0.00 0.00 60 1018.2
20260509173041 58 94 0.0 0.9 0.00 0.00 0.00 59 1018.2
20260509171534 61 153 0.0 0.0 0.00 0.00 0.00 60 1018.4
20260509170032 60 153 0.0 0.0 0.00 0.00 0.00 55 1018.4
20260509164533 59 152 0.0 0.0 0.00 0.00 0.00 58 1018.6
20260509163018 59 152 0.0 0.0 0.00 0.00 0.00 59 1018.5
20260509161513 59 151 0.0 0.0 0.00 0.00 0.00 54 1018.5
20260509160012 58 152 0.0 0.0 0.00 0.00 0.00 45 1018.6
20260509154506 58 151 0.0 0.0 0.00 0.00 0.00 34 1018.8
20260509153106 57 152 0.0 0.0 0.00 0.00 0.00 24 1018.8
20260509151556 56 152 0.0 0.0 0.00 0.00 0.00 1 1019.0
20260509150051 52 152 0.0 0.0 0.00 0.00 0.00 1 1018.9
20260509144548 50 152 0.0 0.0 0.00 0.00 0.00 1 1019.0
20260509143042 47 152 0.0 0.0 0.00 0.00 0.00 1 1019.1
20260509141537 0 0.0 0.0 0.00 0.00 0.00 1019.1
20260509140040 0 0.0 0.0 0.00 0.00 0.00 1019.1
20260509134529 0 0.0 0.0 0.00 0.00 0.00 1019.2
20260509133025 0 0.0 0.0 0.00 0.00 0.00 1019.1
20260509131520 46 152 0.0 0.0 0.00 0.00 0.00 1 1019.3
20260509130015 46 152 0.0 0.0 0.00 0.00 0.00 1 1019.2
20260509124512 46 152 0.0 0.0 0.00 0.00 0.00 1 1019.1
20260509123016 46 152 0.0 0.0 0.00 0.00 0.00 1 1019.1
20260509121501 46 152 0.0 0.0 0.00 0.00 0.00 1 1019.1
20260509120112 46 152 0.0 0.0 0.00 0.00 0.00 1 1019.2
20260509114553 46 152 0.0 0.0 0.00 0.00 0.00 1 1019.3
20260509113053 46 152 0.0 0.0 0.00 0.00 0.00 1 1019.4
20260509111546 46 152 0.0 0.0 0.00 0.00 0.00 1 1019.5
20260509110044 46 152 0.0 0.0 0.00 0.00 0.00 1 1019.4
20260509104536 46 152 0.0 0.0 0.00 0.00 0.00 1 1019.4
20260509103036 46 152 0.0 0.0 0.00 0.00 0.00 1 1019.2
20260509101535 46 152 0.0 0.0 0.00 0.00 0.00 1 1019.3
20260509100022 46 152 0.0 0.0 0.00 0.00 0.00 1 1019.2
20260509094525 46 151 0.0 0.0 0.00 0.00 0.00 1 1019.2
20260509093014 46 151 0.0 0.0 0.00 0.00 0.00 1 1019.2
20260509091509 46 151 0.0 0.0 0.00 0.00 0.00 1 1019.2
20260509090004 45 151 0.0 0.0 0.00 0.00 0.00 1 1019.3
20260509084601 45 152 0.0 0.0 0.00 0.00 0.00 1 1019.4
20260509083057 44 151 0.0 0.0 0.00 0.00 0.00 1 1019.4
20260509081551 44 152 0.0 0.0 0.00 0.00 0.00 1 1019.4
20260509080054 44 152 0.0 0.0 0.00 0.00 0.00 1 1019.4
20260509074551 44 151 0.0 0.0 0.00 0.00 0.00 1 1019.4
20260509073107 44 151 0.0 0.0 0.00 0.00 0.00 1 1019.5
20260509071537 45 152 0.0 0.0 0.00 0.00 0.00 1 1019.4
20260509070029 45 151 0.0 0.0 0.00 0.00 0.00 1 1019.4
20260509064525 45 152 0.0 0.0 0.00 0.00 0.00 1 1019.3
20260509063025 45 152 0.0 0.0 0.00 0.00 0.00 1 1019.4
20260509061515 46 152 0.0 0.0 0.00 0.00 0.00 1 1019.3
20260509060027 46 152 0.0 0.0 0.00 0.00 0.00 1 1019.3
20260509054507 46 152 0.0 0.0 0.00 0.00 0.00 1 1019.3
20260509053002 47 152 0.0 0.0 0.00 0.00 0.00 1 1019.2
20260509051557 47 152 0.0 0.0 0.00 0.00 0.00 1 1019.2
20260509050057 47 152 0.0 0.0 0.00 0.00 0.00 1 1019.2
20260509044549 48 152 0.0 0.0 0.00 0.00 0.00 1 1019.2
20260509043048 48 152 0.0 0.0 0.00 0.00 0.00 2 1019.2
20260509041541 49 152 0.0 0.0 0.00 0.00 0.00 9 1019.1
20260509040048 49 152 0.0 0.0 0.00 0.00 0.00 21 1019.0
20260509034542 50 152 0.0 0.0 0.00 0.00 0.00 31 1018.8
20260509033026 51 152 0.0 0.0 0.00 0.00 0.00 39 1018.8